Location: Chandolas
(44.4033°N, 4.2533°E)
Time: 11:09:28
(UTC+00:00)

COSMOS 2455 - Pass Details

Date: 15 November 2019
Orbit: 902 x 908 km, 67.1° (Epoch: 10 December)

Event Time Altitude Azimuth Distance (km) Brightness Sun altitude
Exits shadow 04:31:31 14° 340° (NNW) 2,323 4.7 -22.6°
Maximum altitude 04:36:32 48° 52° (NE) 1,172 3.7 -21.7°
Drops below altitude 10° 04:42:19 10° 126° (SE) 2,583 6.1 -20.7°
Sets 04:44:55 0° 132° (SE) 3,520 6.8 -20.3°
